Location: Fernhill
(41.0167°S, 175.6333°E)
Time: 19:13:52
(UTC+00:00)

Meteor 2-6 Rocket - Pass Details

Date: 28 February 2026
Orbit: 804 x 913 km, 81.3° (Epoch: 11 March)

Event Time Altitude Azimuth Distance (km) Brightness Sun altitude
Exits shadow 09:19:44 11° 340° (NNW) 2,491 6.5 -24.5°
Maximum altitude 09:25:23 66° 258° (WSW) 995 4.7 -25.3°
Drops below altitude 10° 09:31:22 10° 176° (S) 2,632 7.2 -26.2°
Sets 09:33:55 0° 173° (S) 3,585 7.9 -26.6°
